Location: Casteau
(50.5142°N, 4.0161°E)
Time: 00:25:22
(UTC+00:00)

Vanguard 3 - Visible Passes

Search period start: 29 July 2021 00:00
Search period end: 08 August 2021 00:00
Orbit: 508 x 3261 km, 33.4° (Epoch: 28 July)

Date Brightness Start Highest point End Pass type
(mag) Time Alt. Az. Time Alt. Az. Time Alt. Az.
29 Jul 10.6 01:26:08 10° WSW 01:33:50 15° SW 01:33:50 15° SW visible
29 Jul 10.3 21:49:33 10° WSW 22:06:56 41° SSW 22:18:13 21° SE visible
30 Jul 10.4 00:06:19 10° W 00:19:48 24° SW 00:22:40 23° SSW visible
30 Jul 10.4 20:33:40 10° WSW 20:50:47 45° S 21:07:08 11° ESE visible
30 Jul 10.3 22:48:36 10° W 23:04:42 33° SSW 23:11:34 26° S visible
31 Jul 10.8 01:09:04 10° WSW 01:16:01 14° SW 01:16:01 14° SW visible
31 Jul 10.4 21:32:01 10° WSW 21:48:57 40° SSW 22:00:32 21° SSE visible
31 Jul 10.5 23:48:46 10° W 00:01:54 23° SW 00:04:59 22° SSW visible
01 Aug 10.4 20:16:20 10° WSW 20:32:49 44° S 20:49:33 11° SE visible
01 Aug 10.4 22:31:04 10° W 22:46:44 32° SSW 22:54:01 24° S visible
02 Aug 10.9 00:52:33 10° WSW 00:58:28 12° SW 00:58:28 12° SW visible
02 Aug 10.5 21:14:39 10° WSW 21:30:58 38° SSW 21:43:05 20° SSE visible
02 Aug 10.7 23:31:26 10° W 23:43:56 21° SW 23:47:33 20° SSW visible
03 Aug 10.5 19:59:09 10° WSW 20:14:52 43° S 20:32:13 10° SE visible
03 Aug 10.5 22:13:44 10° W 22:28:43 30° SSW 22:36:41 22° S visible
04 Aug 11.1 00:37:21 10° WSW 00:40:34 11° SW 00:41:09 11° SW visible
04 Aug 10.6 20:57:27 10° W 21:12:59 37° SSW 21:25:51 18° SSE visible
04 Aug 10.8 23:14:23 10° W 23:25:57 19° SW 23:30:20 18° SSW visible
05 Aug 10.5 19:42:08 10° WSW 19:56:58 41° S 20:14:26 10° SE visible
05 Aug 10.7 21:56:35 10° W 22:10:44 27° SSW 22:19:33 20° S visible
06 Aug 10.6 20:40:26 10° W 20:55:02 34° SSW 21:08:50 15° SSE visible
06 Aug 10.9 22:57:42 10° WSW 23:07:59 17° SW 23:13:19 15° SSW visible
07 Aug 10.5 19:25:17 10° WSW 19:39:08 39° SSW 19:56:20 10° SE visible
07 Aug 10.8 21:39:42 10° W 21:52:46 25° SW 22:02:39 16° S visible
